Voltar ao catálogo

ICEYE-X61

AtivoCiênciaSSO
NORAD 66754·PAYLOAD·🇫🇮 Finland

Lançado Nov 28, 2025 de Vandenberg Space Force Base

Loading…

Próximas Passagens (próximas 24 horas)

TLE

AtualizadoSource: Space-Track

Época: Sep 14, 2026, 04:09 UTC

1 66754U 25276CS  26257.17335167  .00002397  00000-0  11776-3 0  9991
2 66754  97.4128 328.9980 0004165  46.6051 313.5529 15.19006555 43921

Acompanhe ICEYE-X61 em tempo real com AllMySat

Download on the App Store